T 1999 Dec. 9.27520 TT                                  Nakano

q   0.7489049            (2000.0)            P               Q

n   0.18887123     Peri.  149.29906     +0.80307360     -0.56030771

a   3.0085612      Node   246.14341     +0.49171677     +0.81537078

e   0.7510754      Incl.   12.81163     +0.33658195     +0.14569067

P   5.22

From 207 observations 1994-1999, mean residual 0".87.  Nongravitational

   parameters A1 = -0.55 +/- 0.09, A2 = -0.5196 +/- 0.0410,

   A3 = +0.63 +/- 0.03.



NAKANO

         **** Don't distribute anyone except personal use only ****

                (C) Copyright 1999 OAA/ComputingSection

write mail from CFAD0::NAKANO on 1999-09-28 01:08:24(JST).

 





戻ります。